Tracking 23731 objects as of 27-Sep-2021
HD Live streaming from Space Station
objects crossing your sky now

STARLINK-1647

Track STARLINK-1647 now!
10-day predictions
STARLINK-1647 is classified as:


NORAD ID: 47978
Int'l Code: 2021-024B
Perigee: 553.2 km
Apogee: 555.5 km
Inclination: 53.1 °
Period: 95.6 minutes
Semi major axis: 6925 km
RCS: Unknown
Launch date: March 24, 2021
Source: United States (US)
Launch site: AIR FORCE EASTERN TEST RANGE (AFETR)
aabbcc
Your satellite tracking list
Your tracking list is empty




NASA's NSSDC Master Catalog

Two Line Element Set (TLE):
1 47978U 21024B   21269.74109548  .00001290  00000-0  10550-3 0  9998
2 47978  53.0562  71.3040 0001696  97.6199 262.4983 15.06399728 29641
Source of the keplerian elements: AFSPC